Tracking 17780 objects as of 30-July-2016
HD Live streaming from Space Station
objects crossing your sky now

ATLAS CENTAUR DEB

Track ATLAS CENTAUR DEB now!


NORAD ID: 25253
Int'l Code: 1978-068C
Perigee: 847.0 km
Apogee: 35,613.3 km
Inclination: 21.4 °
Period: 640.0 minutes
Semi major axis: 24601 km
RCS: 0.1092 m2 (medium)
Launch date: June 29, 1978
Source: United States (US)
Launch site: AIR FORCE EASTERN TEST RANGE (AFETR)

Note: This is SATELLITE DEBRIS
Your satellite tracking list
Your tracking list is empty





NASA's NSSDC Master Catalog

Two Line Element Set (TLE):
1 25253U 78068C   16211.07254409 -.00000151  00000-0  56087-3 0  9995
2 25253  21.3785 157.2721 7066015 139.9758 353.9689  2.24993493156669
Source of the keplerian elements: AFSPC

N2YO: 999